Regional Weather Roundup
Issued by NWS

Home | Current Version | Previous Version | Text Only | Print | Product List | Glossary On
Versions: 1 2 3 4 5 6 7 8 9 10 11 12 13 14 15 16 17 18 19 20 21 22 23 24 25 26 27 28 29 30 31 32 33 34 35 36 37 38 39 40 41 42 43 44 45 46 47 48 49 50
000
ASHW40 PHFO 280030
RWRHI

WEATHER ROUNDUP FOR HAWAII
NATIONAL WEATHER SERVICE HONOLULU HI
200 PM HST SAT DEC 27 2014

THIS IS AN AUTOMATED REPORT THAT HAS NOT BEEN QUALITY CONTROLLED.

NOTE..."FAIR" INDICATES FEW OR NO CLOUDS BELOW 12,000 FEET WITH NO
SIGNIFICANT WEATHER AND/OR OBSTRUCTIONS TO VISIBILITY.

* - THESE SITES REPORT LIMITED FIELDS

HIZ001>004-280100-
KAUAI-NIIHAU-

CITY           SKY/WX    TMP DP  RH WIND       PRES   REMARKS
LIHUE APT      SUNNY     79  55  43 N14       29.85F
PORT ALLEN*      N/A     79 N/A N/A SE8         N/A
POIPU*           N/A     77 N/A N/A S7G13       N/A
PRINCEVILLE*     N/A     75 N/A N/A MISG        N/A
KOKOLE POINT*  NOT AVBL
MOLOAA DAIRY*  NOT AVBL
WAIMEA HTS*    NOT AVBL
PUU OPAE*      NOT AVBL
PUU LUA*       NOT AVBL
MAKAHA RIDGE*  NOT AVBL
$$

HIZ005>011-280100-
OAHU-

CITY           SKY/WX    TMP DP  RH WIND       PRES   REMARKS
HONOLULU       MOSUNNY   80  56  43 NW15G21   29.82F
KALAELOA       SUNNY     78  57  48 W20G25    29.83F
KANEOHE MCB    SUNNY     78  60  53 N17G25    29.84S
WHEELER FIELD  FAIR      73  57  57 NW13G21   29.84F
BELLOWS*         N/A    N/A N/A N/A NE9G22      N/A
KAHUKU*          N/A    N/A N/A N/A NW7G16      N/A
WHEELER*       NOT AVBL
WAIANAE HARBOR NOT AVBL
DILLINGHAM*      N/A     82  61  47 N1G9        N/A
KAHUKU TRN*      N/A     66  50  55 NW7G15      N/A
KAWAILOA*        N/A     73  59  60 NW5G17      N/A
KII*             N/A     75  59  57 NW13G18     N/A
MAKUA RANGE*     N/A     75  57  53 NW6G18      N/A
OAHU FOREST NW NOT AVBL
SCHOFIELD BRK*   N/A     64  50  59 MISG        N/A
SCHOFIELD S*   NOT AVBL
WAIANAE VLY*   NOT AVBL
KUAOKALA*      NOT AVBL
HONOULIUULI*   NOT AVBL
MOKUOLOE IS*     N/A    N/A N/A N/A MISG        N/A
PALEHUA*       NOT AVBL
WAIAWA PHB*    NOT AVBL
$$

HIZ012>013-280100-
MOLOKAI-

CITY           SKY/WX    TMP DP  RH WIND       PRES   REMARKS
MOLOKAI AIRPT  MOSUNNY   74  59  59 NW16G24   29.83F
KALAUPAPA      NOT AVBL
MAKAPULAPAI*   NOT AVBL
MOLOKAI 1*     NOT AVBL
PUU ALII*        N/A     57  56  95 NW2         N/A
$$

HIZ016-280100-
KAHOOLAWE-

CITY           SKY/WX    TMP DP  RH WIND       PRES   REMARKS
KAHOOLAWE*     NOT AVBL
HAKIOAWA*        N/A     73  62  67 MISG      30.23S
HONOKANAIA*      N/A     78  63  58 W13G18    29.82F
KANELOA*         N/A     75  61  60 W10G24    29.05F
KEALIALALO*    NOT AVBL
LUA MAKIKA*    NOT AVBL
$$

HIZ014>015-280100-
LANAI-

CITY           SKY/WX    TMP DP  RH WIND       PRES   REMARKS
LANAI CITY     FAIR      78  58  50 NW15G24   29.86F
LANAI 1*       NOT AVBL
$$

HIZ017>028-280100-
MAUI-

CITY           SKY/WX    TMP DP  RH WIND       PRES   REMARKS
KAHULUI        MOSUNNY   79  61  53 N21       29.81F
KAPALUA-W MAUI MOSUNNY   77  63  61 W6        29.82
HANA AIRPORT   CLOUDY    73  64  73 NW13      29.83S
HANA*            N/A     77 N/A N/A NW10G20     N/A
HALEAKALA SUMM   N/A     39  -4  16 NW43        N/A  WCI  25
MAALAEA BAY*   NOT AVBL
HALEAKALA*     NOT AVBL
KAUPO GAP*     NOT AVBL
KULA 1*          N/A     56  47  73 NW10G17     N/A
$$

HIZ023>026-280100-
BIG ISLAND OF HAWAII COAST AND LOWER SLOPES-

CITY           SKY/WX    TMP DP  RH WIND       PRES   REMARKS
KAILUA KONA    SUNNY     81  59  47 NW9       29.79F
HILO           MOSUNNY   79  64  60 N13G18    29.78F
HONOKAA*       NOT AVBL
KAWAIHAE MWT*    N/A     77 N/A N/A W7          N/A
KAWAIHAE*        N/A     75 N/A N/A W6          N/A
SOUTH POINT*     N/A     75 N/A N/A E7G16       N/A
UPOLU AIRPORT*   N/A    N/A N/A N/A SW14G22     N/A
KAMUELA*       CLEAR     73  54  49 W8        29.90S
HAKALAU*         N/A     57  51  80 NE6         N/A
KALOKO-HONOKO*   N/A     81  59  47 W12       29.78
PALI 2*          N/A    N/A N/A N/A SE8G14      N/A
KEALAKOMO*       N/A     88  73  62 E8          N/A  HX  96
KAUPULEHU*     NOT AVBL
KAPAPALA*        N/A     74  62  65 E2G10       N/A
LOWER KAHUKU*    N/A     72  52  49 SE3G12      N/A
PUHE CS*       NOT AVBL
PUHO CS*         N/A     78  60  53 NW7G14      N/A
PTA KEAMUKU*     N/A     68  54  60 CALM        N/A
WAIKOLOA*      NOT AVBL
$$

HIZ027>028-280100-
BIG ISLAND OF HAWAII INTERIOR AND SUMMMITS-

CITY           SKY/WX    TMP DP  RH WIND       PRES   REMARKS
BRADSHAW FIELD SUNNY     63  33  33 W13G18    30.09F
MK VISITOR CEN NOT AVBL
MAUNA KEA*       N/A     37  -8  14 N90G117     N/A  WCI  19
MAUNA LOA*       N/A     50 -15   6 MISG        N/A
MAUNA LOA 1*   NOT AVBL
PTA KIPUKA*      N/A     64  43  45 NW7G14      N/A
PTA RANGE 17*    N/A     63  45  51 W9          N/A
PTA WEST*        N/A     64  50  59 NW8G16      N/A
NENE CABIN*      N/A    N/A N/A N/A SE5G10      N/A
AHUMOA*        NOT AVBL
PTA PORTABLE*  NOT AVBL
PUU MALI*      NOT AVBL
$$

HIC003-280100-
NORTHWEST ISLANDS-

CITY           SKY/WX    TMP DP  RH WIND       PRES   REMARKS
MIDWAY ISLAND  MOSUNNY   79  70  73 SW10      29.97F
MIDWAY NOS*    NOT AVBL
FRENCH FRIGATE NOT AVBL
$$

PHZ110>124-180-280100-
BUOY REPORTS

STATION/POSITION TIME  TEMP    WIND        PRES    WAVE   SWELL
                       AIR SEA DIR/SP/G            HT/PER HT/DIR
                 (UTC) (F)     (DEG/KT/KT) (MB)    (FT/S) (FT/D)
BUOY 51001       NOT AVBL
BUOY 51101       0000   70 76  330/ 14/ 19 1012.6F   9/12   8/310
BUOY 51100       0000   72 74  330/ 17/ 21 1007.0
BUOY 51003       0000   75 79  360/ 12/ 16 1010.8F   7/15   7
BUOY 51004       NOT AVBL
BARBERS PT BUOY  NOT AVBL
WAIMEA BAY BUOY  0000      76                N/A     8/ 9   3/310
KAILUA BAY BUOY  0000      77                N/A     7/ 9   3/360
LANAI BUOY       0000      78                N/A     3/13   2/200
BARBERS PT 2     0000      77                N/A     5/14   3/320
PAUWELA MAUI     0000      77                N/A     8/ 9   3/340
HILO             0000      78                N/A     7/ 8   3/ 10
KANEOHE BAY BUOY 0000      76                N/A     7/ 8   2/ 20
HANALEI KAUAI    NOT AVBL
KAHULUI HARBOR   0000   74 78  340/ 20/ 23 1009.3S
HONOLULU HARBOR  0000   76     310/ 11/ 13 1010.0F
KILO NALU        NOT AVBL
HILO HARBOR      0000   76      10/ 16/ 19 1007.6F
MOKUOLOE         0000   74 75  360/ 17/ 20 1010.3F
NAWILIWILI       0000      79                N/A
WHOTS BUOY       NOT AVBL
BUOY 51028       NOT AVBL
$$

......................KEY........................................
  SKY/WX - SKY CONDITIONS/PRESENT WEATHER
  TMP    - TEMPERATURE IN FAHRENHEIT
  DWPT   - DEWPOINT IN FAHRENHEIT
  RH     - RELATIVE HUMIDITY IN PERCENT
  WIND   - DIRECTION AND SPEED /MPH FOR ISLANDS...KTS FOR BUOYS/
  PRES   - MEAN SEA LEVEL PRESSURE IN INCHES OF HG
  VSB    - VISIBILITY IN MILES
  HX     - HEAT INDEX
  WCI    - WIND CHILL INDEX
  VRB    - VARIABLE WIND DIRECTION
  N/A    - NOT AVAILABLE


USA.gov is the U.S. government's official web portal to all federal, state and local government web resources and services.